Weather History for KFNB - June, 2013

Change the Weather History Date:

Tuesday, June 4, 2013

  Actual Average Record
Temperature  
Mean Temperature 70 °F -  
Max Temperature 78 °F 81 °F 95 °F (1948)
Min Temperature 62 °F 57 °F 39 °F (1990)
Cooling Degree Days 4    
Growing Degree Days 20 (Base 50)    
Moisture  
Dew Point 60 °F    
Average Humidity 72    
Maximum Humidity 78    
Minimum Humidity 64    
Precipitation  
Precipitation 0.00 in - - ()
Sea Level Pressure  
Sea Level Pressure 29.89 in    
Wind  
Wind Speed 11 mph (SSE)    
Max Wind Speed 23 mph    
Max Gust Speed 29 mph    
Visibility 10 miles    
Events      
Averages and records for this station are not official NWS values.
T = Trace of Precipitation, MM = Missing Value Source: NWS Daily Summary

Daily Weather History Graph

Daily Weather History Graph

Search for Another Location

Airport or City:

Trip Planner

Search our weather history database for the weather conditions in past years. The results will help you decide how hot, cold, wet, or windy it might be!

Date:

Astronomy

Jun. 04, 2013 Rise Set
Actual Time 5:54 AM CDT 8:47 PM CDT
Civil Twilight 5:21 AM CDT 9:20 PM CDT
Nautical Twilight 4:40 AM CDT 10:01 PM CDT
Astronomical Twilight 3:53 AM CDT 10:48 PM CDT
Moon 3:24 AM CDT 5:17 PM CDT
Length of Visible Light 15h 58m
Length of Day
14h 53m
Waning Crescent, 14% of the Moon is Illuminated
Jun 4
Waning Crescent
Jun 8
New
Jun 16
First Quarter
Jun 23
Full
Jun 29
Last Quarter

Hourly Weather History & Observations

Time (CDT) Temp. Dew Point Humidity Pressure Visibility Wind Dir Wind Speed Gust Speed Precip Events Conditions
12:53 AM 64.0 °F 54.0 °F 70% 29.88 in 10.0 mi SE 9.2 mph - N/A   Clear
1:53 AM 62.1 °F 55.0 °F 78% 29.85 in 10.0 mi SE 8.1 mph - N/A   Clear
2:53 AM 63.0 °F 55.0 °F 75% 29.85 in 10.0 mi ESE 10.4 mph - N/A   Clear
3:53 AM 63.0 °F 55.0 °F 75% 29.85 in 10.0 mi ESE 10.4 mph - N/A   Clear
4:53 AM 62.1 °F 55.0 °F 78% 29.86 in 10.0 mi ESE 8.1 mph - N/A   Overcast
5:53 AM 63.0 °F 55.9 °F 78% 29.85 in 10.0 mi SE 10.4 mph - N/A   Scattered Clouds
6:53 AM 63.0 °F 55.9 °F 78% 29.85 in 10.0 mi SE 11.5 mph 18.4 mph N/A   Clear
7:53 AM 64.9 °F 57.0 °F 75% 29.88 in 10.0 mi SSE 12.7 mph - N/A   Clear
8:53 AM 66.9 °F 57.9 °F 73% 29.90 in 10.0 mi SE 5.8 mph - N/A   Clear
9:53 AM 70.0 °F 60.1 °F 71% 29.90 in 10.0 mi SSE 15.0 mph - N/A   Partly Cloudy
10:11 AM 69.8 °F 60.8 °F 73% 29.92 in 10.0 mi SSE 15.0 mph - N/A   Mostly Cloudy
10:32 AM 69.8 °F 60.8 °F 73% 29.89 in 10.0 mi SSE 23.0 mph 28.8 mph N/A   Scattered Clouds
10:53 AM 72.0 °F 61.0 °F 68% 29.86 in 10.0 mi SSE 23.0 mph 28.8 mph N/A   Partly Cloudy
11:10 AM 71.6 °F 60.8 °F 69% 29.91 in 10.0 mi South 16.1 mph 25.3 mph N/A   Mostly Cloudy
11:53 AM 72.0 °F 62.1 °F 71% 29.88 in 10.0 mi SSE 15.0 mph 24.2 mph N/A   Overcast
12:53 PM 71.1 °F 62.1 °F 73% 29.91 in 10.0 mi South 10.4 mph - N/A   Overcast
1:53 PM 73.0 °F 63.0 °F 71% 29.90 in 10.0 mi SSE 6.9 mph - N/A   Overcast
2:41 PM 73.4 °F 62.6 °F 69% 29.90 in 10.0 mi South 9.2 mph - N/A   Overcast
2:53 PM 75.9 °F 64.0 °F 67% 29.89 in 10.0 mi South 8.1 mph - N/A   Overcast
3:53 PM 75.9 °F 64.0 °F 67% 29.88 in 10.0 mi SE 10.4 mph - N/A   Overcast
4:53 PM 77.0 °F 64.0 °F 64% 29.88 in 10.0 mi SSE 11.5 mph 16.1 mph N/A   Mostly Cloudy
5:53 PM 77.0 °F 64.0 °F 64% 29.88 in 10.0 mi South 5.8 mph - N/A   Overcast
6:53 PM 75.9 °F 64.0 °F 67% 29.88 in 10.0 mi South 8.1 mph - N/A   Overcast
7:53 PM 75.0 °F 63.0 °F 66% 29.89 in 10.0 mi SSE 8.1 mph - N/A   Mostly Cloudy
8:53 PM 72.0 °F 63.0 °F 73% 29.91 in 10.0 mi SE 6.9 mph - N/A   Mostly Cloudy
9:53 PM 70.0 °F 63.0 °F 78% 29.92 in 10.0 mi SE 4.6 mph - N/A   Mostly Cloudy
10:53 PM 71.1 °F 63.0 °F 75% 29.95 in 10.0 mi South 8.1 mph - N/A   Overcast
11:53 PM 69.1 °F 62.1 °F 78% 29.93 in 10.0 mi South 6.9 mph - N/A   Scattered Clouds